Wind_Speed
15 15 16 16 17 16 15 13 12 9 6 2 2 3 1 2 3 5 5 6 7 7 7 8 8 8 8 8 8 8 7 7 7 7 7 7 6 6 5 6 6 6
16 15 15 16 17 17 16 14 11 8 4 1 2 3 3 4 6 7 8 9 9 9 10 10 10 10 10 10 10 10 9 9 8 7 7 6 6 6 5 6 6 7
18 16 15 16 17 17 16 14 11 7 4 1 2 3 5 7 8 9 10 11 11 11 12 12 12 12 12 12 11 11 11 10 9 8 8 7 6 6 6 6 6 6
20 18 16 16 18 18 16 14 11 8 5 3 4 5 6 8 9 10 12 12 12 12 12 12 12 11 12 12 12 12 11 11 10 10 9 7 7 7 7 7 6 6
21 19 18 18 19 19 17 14 11 9 7 6 6 7 7 8 9 11 12 13 12 12 11 11 11 10 10 10 10 10 10 10 9 9 9 8 8 8 7 7 6 6
23 21 19 19 20 20 18 15 12 10 9 8 8 8 9 9 9 10 12 12 12 12 11 10 10 9 9 9 9 8 8 7 7 7 8 7 7 7 7 7 6 5
25 24 22 22 22 23 21 17 15 14 12 11 10 9 9 9 10 11 12 12 12 12 11 10 9 8 7 6 6 5 5 4 4 4 5 5 5 5 5 6 6 5
28 27 26 25 25 26 23 18 17 17 15 13 11 10 10 10 10 11 11 11 11 11 10 9 8 6 5 4 3 3 2 2 1 1 1 2 2 2 3 4 4 4
30 29 29 28 28 28 24 20 20 19 16 14 12 11 10 11 11 11 10 10 9 9 9 8 7 6 5 4 3 3 4 3 3 2 2 2 3 3 4 4 5 5
31 31 31 30 29 28 25 22 20 18 16 16 14 13 13 13 12 12 10 8 8 8 8 8 7 7 6 5 5 6 7 6 6 6 6 6 6 7 7 7 7 7
32 33 32 30 29 28 25 21 19 19 18 18 16 15 15 14 13 11 9 8 8 8 8 7 7 7 6 7 8 8 9 8 7 7 7 7 8 9 9 9 9 10
27 29 29 28 27 27 26 23 23 22 19 18 17 16 16 15 13 11 10 9 9 9 9 8 7 7 8 9 10 10 9 9 9 9 8 8 8 9 9 10 10 11
18 20 22 23 25 28 29 29 28 26 21 18 19 18 17 17 14 12 11 11 11 11 10 10 9 8 9 9 10 11 11 11 11 10 10 10 9 10 10 11 11 12
13 16 17 19 23 26 28 28 26 24 20 19 19 18 18 17 15 14 13 13 13 13 13 12 11 10 10 9 10 10 11 11 11 11 11 11 10 11 11 12 12 12
12 14 16 18 20 23 24 22 18 18 19 19 19 19 19 18 17 16 15 15 15 16 15 15 14 13 11 10 11 11 12 12 12 12 13 13 12 13 13 14 14 14
11 13 15 17 18 20 21 20 19 19 19 19 18 18 19 19 18 18 17 17 17 17 17 17 15 14 13 12 13 13 14 14 13 13 14 15 15 16 16 16 17 17
12 13 15 15 17 19 19 19 21 20 19 18 17 18 18 18 19 19 19 19 18 18 18 17 16 15 15 14 14 14 15 15 15 15 15 15 15 16 16 17 18 18
12 13 14 15 16 18 17 18 20 20 19 18 17 17 17 16 16 16 17 17 17 17 18 18 18 17 16 16 15 15 16 17 17 16 16 15 16 16 15 16 17 17
13 14 15 16 18 18 17 17 18 18 19 19 18 18 17 16 15 15 15 15 16 17 17 18 18 18 18 18 17 17 18 18 18 17 16 16 16 15 15 15 16 17
14 15 17 18 18 17 16 16 16 17 19 19 20 20 19 18 17 16 16 16 16 16 17 17 17 17 17 17 16 16 17 18 18 17 16 14 14 14 14 15 15 16
15 16 18 19 19 18 17 17 16 16 18 19 19 20 19 19 19 18 17 17 16 16 16 16 16 16 16 15 15 15 16 17 17 15 13 11 12 13 15 16 16 16
15 16 17 18 19 19 18 18 17 16 16 17 17 17 17 17 17 17 17 17 16 16 16 16 16 16 15 15 15 15 16 16 15 13 10 10 11 14 16 17 17 18
17 18 19 18 19 18 18 17 17 17 17 17 16 16 16 16 16 16 16 16 16 16 16 16 16 15 15 15 15 15 15 15 14 12 11 11 13 15 17 18 19 20
17 19 18 19 20 21 21 20 21 21 20 19 18 17 16 16 16 16 16 17 17 17 17 16 16 16 15 15 15 15 15 15 14 13 13 14 15 17 18 20 21 22
16 17 18 19 21 22 23 22 22 22 21 20 19 18 18 18 18 18 18 18 19 19 19 18 18 17 16 16 16 16 16 16 16 16 16 17 18 19 20 22 23 23
16 17 18 18 19 21 21 20 20 19 20 20 20 19 20 20 19 19 20 20 21 20 20 20 20 19 18 17 17 17 18 19 19 19 19 19 20 21 22 23 24 24
Wind_Direction
188 191 196 196 196 194 195 200 202 198 192 187 43 47 77 191 194 178 156 147 147 143 137 131 126 123 122 120 118 119 119 118 119 122 125 130 137 147 159 165 167 170
191 193 199 200 201 199 199 203 203 195 183 156 52 87 149 179 176 164 148 142 143 141 135 129 125 122 119 117 115 114 113 114 115 121 126 131 139 149 156 159 161 165
200 202 206 206 205 204 203 202 199 196 184 131 108 132 159 169 164 155 145 140 140 139 135 131 128 123 120 117 116 115 115 114 116 118 118 123 133 141 148 153 159 166
209 213 212 207 205 205 206 203 198 193 179 152 142 145 154 160 157 151 145 140 139 139 138 137 134 130 126 123 121 120 120 121 123 121 119 124 130 133 141 147 151 162
214 218 214 207 206 206 205 201 194 182 166 157 153 146 148 155 155 152 148 143 140 139 139 140 140 138 136 133 130 128 128 130 132 129 126 129 129 128 133 135 137 146
217 219 218 214 209 205 203 198 188 175 164 158 152 145 147 155 160 160 154 149 144 142 142 143 145 145 144 142 140 139 140 141 143 140 137 136 133 131 128 122 120 123
219 222 222 218 210 204 200 190 177 172 166 159 154 147 146 156 167 168 162 158 155 152 151 151 152 154 153 153 152 154 158 157 153 146 141 146 149 145 138 132 129 128
218 220 218 216 210 204 196 180 174 176 170 163 160 152 150 160 171 173 171 169 167 165 163 161 161 167 174 180 183 196 209 204 172 118 114 151 175 171 164 165 167 172
216 217 216 214 209 205 195 180 179 182 174 170 171 164 162 170 175 178 179 180 181 183 183 184 190 202 215 216 219 240 247 247 244 237 232 228 232 229 209 201 206 213
218 218 216 210 204 201 194 184 186 186 179 181 183 180 179 180 181 181 183 190 199 207 211 216 223 231 246 251 245 248 249 245 239 231 228 228 228 232 233 230 227 229
222 219 216 209 202 197 193 189 183 181 187 192 190 188 189 189 189 188 189 201 214 222 228 234 239 242 252 258 255 256 257 258 256 249 241 236 233 234 238 241 242 243
229 224 220 216 207 200 202 200 189 189 203 204 195 195 198 198 200 201 206 218 225 230 235 240 244 246 250 253 251 249 251 255 259 257 251 244 238 237 238 243 250 254
227 223 219 216 209 205 211 216 217 220 221 205 195 203 208 207 212 216 221 231 235 238 243 246 250 253 251 246 238 237 243 248 250 252 253 251 247 243 242 245 249 252
203 205 208 212 212 214 220 227 231 227 213 199 201 210 213 216 221 225 229 236 240 244 249 250 253 255 250 235 224 229 240 248 251 253 255 254 252 253 255 253 251 249
185 187 195 203 209 218 223 222 213 199 197 207 214 215 217 222 225 229 234 239 243 247 249 250 251 251 248 240 235 235 239 243 248 253 255 255 256 260 262 259 255 252
192 189 189 193 199 206 208 205 197 193 201 211 214 214 219 224 227 230 234 237 240 243 244 246 246 243 242 246 246 242 239 243 249 253 255 257 259 261 263 261 257 253
198 195 192 193 197 198 198 200 201 202 205 211 213 215 217 223 228 231 232 233 234 236 239 241 239 238 242 247 247 243 243 247 254 258 259 258 259 261 262 260 257 252
197 195 194 193 195 197 196 198 203 207 210 214 217 218 219 224 230 233 234 235 235 235 237 237 236 239 244 248 248 249 251 255 258 260 260 259 261 261 257 254 251 246
194 194 195 193 192 194 195 197 204 208 210 212 216 221 224 226 230 234 237 238 239 238 237 238 240 244 247 249 250 252 255 257 259 259 259 259 260 258 251 248 246 239
185 186 188 189 189 191 194 199 204 206 209 213 218 223 227 228 231 234 236 240 242 242 241 242 244 247 249 249 248 248 250 252 254 257 258 258 256 254 249 245 243 237
186 185 185 186 189 193 194 198 202 206 212 215 219 223 226 229 232 235 239 242 243 243 242 243 243 244 244 243 242 243 246 249 252 255 258 256 249 245 243 239 237 233
186 186 188 191 194 196 197 199 201 205 211 215 219 223 227 231 235 238 241 242 243 243 242 241 241 241 240 241 243 244 246 248 249 250 254 255 246 239 237 234 230 228
193 190 191 196 199 200 201 202 201 203 208 213 219 225 229 232 235 237 241 243 245 244 241 239 240 240 242 243 245 246 247 247 246 245 248 250 245 240 238 236 232 230
202 199 201 206 208 209 208 204 200 200 204 209 216 222 227 230 234 237 242 245 246 244 241 241 240 239 241 243 245 249 250 249 247 245 245 247 247 244 241 239 237 236
212 214 218 219 217 216 214 213 210 208 207 209 213 218 222 226 231 235 238 240 239 239 239 239 238 237 239 243 248 252 255 255 254 250 248 249 250 249 246 243 241 241
217 220 222 220 216 215 216 219 220 219 216 213 212 215 222 227 231 233 235 236 237 237 238 237 236 237 241 245 248 252 255 256 256 254 252 251 251 250 249 246 245 245
Height
3138 3140 3142 3143 3143 3144 3145 3146 3146 3146 3146 3146 3146 3146 3145 3145 3145 3145 3146 3146 3147 3147 3147 3147 3147 3147 3147 3147 3147 3147 3147 3147 3147 3147 3147 3148 3148 3149 3149 3150 3150 3151
3137 3139 3141 3142 3142 3143 3144 3144 3145 3145 3145 3145 3145 3145 3145 3145 3145 3146 3146 3147 3147 3147 3147 3147 3147 3147 3147 3147 3147 3147 3147 3147 3147 3147 3148 3148 3149 3149 3149 3150 3150 3151
3136 3138 3140 3141 3142 3142 3143 3143 3143 3144 3144 3145 3145 3145 3145 3145 3145 3146 3146 3147 3147 3148 3148 3148 3148 3148 3148 3148 3148 3148 3148 3148 3148 3148 3148 3149 3149 3149 3150 3150 3150 3150
3135 3137 3139 3140 3141 3142 3142 3142 3142 3143 3144 3144 3144 3144 3144 3145 3145 3145 3146 3147 3147 3148 3148 3148 3148 3148 3148 3148 3148 3148 3148 3148 3148 3148 3149 3149 3150 3150 3150 3150 3150 3150
3134 3135 3137 3139 3140 3141 3141 3142 3142 3143 3143 3144 3144 3144 3144 3144 3145 3145 3146 3147 3147 3147 3148 3148 3148 3148 3148 3148 3148 3148 3149 3149 3149 3149 3149 3150 3150 3150 3151 3151 3151 3151
3132 3134 3136 3138 3139 3140 3140 3141 3141 3142 3143 3144 3144 3144 3144 3144 3145 3145 3146 3146 3147 3147 3148 3148 3148 3148 3148 3148 3148 3149 3149 3149 3149 3150 3150 3150 3151 3151 3151 3151 3151 3151
3131 3133 3134 3136 3137 3138 3139 3140 3141 3142 3143 3143 3144 3144 3144 3144 3145 3145 3145 3146 3147 3147 3147 3148 3148 3148 3148 3148 3149 3149 3149 3150 3150 3151 3151 3151 3151 3151 3152 3152 3152 3152
3129 3130 3131 3133 3135 3135 3137 3139 3141 3141 3142 3142 3144 3144 3144 3144 3144 3145 3145 3146 3146 3147 3147 3148 3148 3148 3148 3149 3149 3150 3150 3150 3151 3151 3151 3151 3151 3151 3152 3152 3151 3152
3126 3127 3128 3130 3132 3133 3136 3138 3139 3139 3140 3141 3142 3143 3143 3143 3144 3144 3145 3146 3147 3147 3148 3148 3148 3148 3148 3149 3150 3150 3150 3150 3150 3151 3151 3151 3151 3151 3151 3151 3151 3151
3123 3124 3125 3127 3129 3132 3134 3135 3136 3137 3138 3138 3140 3141 3142 3143 3143 3144 3145 3146 3147 3147 3147 3148 3148 3148 3148 3149 3149 3149 3149 3149 3150 3150 3150 3150 3150 3150 3150 3150 3150 3150
3119 3120 3122 3124 3127 3131 3133 3133 3134 3136 3136 3137 3138 3139 3141 3142 3143 3144 3145 3146 3146 3147 3147 3147 3148 3148 3148 3148 3148 3148 3148 3148 3149 3149 3149 3149 3148 3149 3149 3149 3149 3149
3117 3118 3121 3123 3126 3129 3131 3132 3132 3133 3134 3135 3136 3137 3139 3141 3142 3144 3145 3145 3146 3146 3146 3146 3147 3147 3147 3146 3146 3146 3147 3147 3147 3147 3147 3147 3147 3147 3147 3148 3148 3148
3115 3117 3120 3122 3125 3127 3129 3130 3131 3131 3132 3133 3134 3136 3138 3139 3141 3143 3144 3144 3145 3145 3145 3145 3146 3146 3146 3145 3145 3145 3145 3145 3145 3146 3146 3145 3145 3145 3146 3146 3146 3146
3114 3116 3119 3121 3124 3126 3127 3129 3130 3130 3131 3132 3132 3134 3137 3138 3140 3141 3142 3143 3143 3143 3143 3144 3144 3144 3144 3144 3144 3144 3144 3144 3144 3144 3144 3144 3144 3144 3143 3144 3144 3145
3113 3115 3117 3119 3122 3124 3126 3127 3128 3128 3129 3131 3132 3134 3135 3137 3138 3139 3140 3141 3142 3142 3142 3142 3142 3142 3142 3142 3142 3142 3142 3142 3143 3143 3143 3143 3143 3142 3142 3142 3142 3142
3113 3115 3116 3118 3121 3123 3124 3125 3126 3127 3128 3130 3131 3133 3134 3135 3136 3137 3138 3139 3139 3139 3139 3139 3139 3140 3140 3141 3141 3141 3141 3141 3141 3142 3141 3141 3141 3140 3140 3140 3140 3140
3113 3114 3116 3118 3120 3121 3122 3123 3125 3126 3127 3128 3130 3131 3132 3133 3134 3135 3136 3136 3137 3137 3137 3137 3137 3137 3138 3138 3139 3139 3139 3139 3139 3139 3139 3139 3139 3139 3139 3139 3138 3138
3112 3113 3115 3116 3118 3119 3120 3122 3123 3124 3125 3126 3127 3128 3130 3131 3132 3132 3133 3134 3134 3134 3135 3135 3135 3135 3136 3136 3136 3136 3136 3136 3136 3136 3137 3137 3137 3137 3137 3136 3136 3136
3110 3112 3113 3114 3116 3117 3118 3119 3120 3121 3122 3123 3125 3126 3128 3129 3129 3130 3130 3131 3131 3132 3132 3132 3132 3133 3133 3133 3133 3133 3133 3132 3133 3133 3134 3134 3134 3134 3134 3134 3134 3134
3109 3110 3112 3113 3115 3116 3117 3117 3118 3119 3120 3121 3122 3124 3125 3126 3126 3127 3127 3128 3128 3129 3129 3130 3130 3130 3130 3130 3130 3130 3130 3129 3129 3130 3131 3131 3131 3131 3132 3132 3133 3133
3107 3108 3110 3112 3113 3114 3115 3115 3115 3116 3117 3119 3120 3121 3122 3123 3123 3124 3124 3125 3125 3126 3126 3127 3127 3127 3127 3128 3128 3128 3127 3127 3127 3127 3128 3128 3129 3129 3130 3131 3132 3132
3106 3107 3108 3109 3110 3111 3111 3111 3111 3113 3115 3117 3118 3119 3119 3120 3121 3121 3122 3122 3123 3123 3124 3124 3124 3125 3125 3125 3125 3125 3124 3124 3125 3125 3125 3126 3126 3127 3128 3129 3130 3131
3105 3105 3106 3107 3108 3109 3109 3109 3110 3111 3113 3114 3116 3117 3117 3118 3118 3119 3119 3120 3120 3120 3121 3121 3122 3122 3122 3122 3122 3122 3122 3121 3122 3122 3123 3123 3124 3125 3126 3127 3128 3128
3103 3104 3104 3105 3106 3107 3108 3109 3109 3110 3111 3112 3113 3114 3115 3115 3116 3116 3117 3117 3118 3118 3118 3118 3119 3119 3119 3119 3119 3119 3119 3118 3119 3119 3120 3121 3121 3122 3123 3124 3125 3126
3103 3103 3103 3104 3104 3105 3106 3106 3107 3108 3109 3109 3110 3111 3112 3113 3113 3114 3114 3114 3115 3115 3116 3116 3116 3116 3116 3116 3116 3116 3115 3115 3116 3117 3117 3118 3118 3119 3120 3121 3122 3123
3102 3103 3103 3103 3103 3103 3104 3105 3105 3106 3106 3107 3107 3108 3109 3109 3110 3110 3111 3111 3112 3112 3113 3113 3113 3113 3113 3113 3112 3112 3112 3112 3113 3113 3114 3115 3115 3116 3117 3118 3119 3119